#timestamp,LO_Frequency,Hit,StdDev 
1544475615.8,286047002.0,N
1544475635.6,286047000.0,N
1544475655.4,286047000.6,N
1544475675.3,286047000.7,N
1544475695.1,286047000.3,N
1544475715.8,286047000.4,N
1544475735.7,286047000.3,N
1544475755.5,286046999.8,N
1544475775.4,286046998.1,N
1544475795.2,286047000.7,N
1544475815.0,286046998.6,N
1544475815.9,286046998.6,N
1544475835.8,286046998.7,N
1544475855.6,286046997.0,N
1544475875.5,286046994.9,Y
1544475895.3,286046995.1,P
1544475915.1,286046995.5,N
1544475935.9,286046995.2,N
1544475955.7,286046995.5,N
1544475975.6,286046995.2,N
1544475995.4,286046995.5,N
1544476015.2,286046997.4,N
1544476035.1,286046996.2,N
1544476036.0,286046996.2,N
1544476055.8,286046995.6,N
1544476075.7,286046995.5,Y
1544476095.5,286047001.1,P
1544476115.3,286046999.8,N
1544476135.2,286047002.5,N
1544476155.0,286047000.1,N
1544476155.9,286047000.1,N
1544476175.8,286047002.3,N
1544476195.6,286047000.3,N
1544476215.4,286047001.2,N
1544476235.3,286047000.5,N
1544476255.1,286046998.4,N
1544476275.8,286047000.8,N
1544476295.7,286046998.5,N
1544476315.5,286046999.4,N
1544476335.3,286046997.0,N
1544476355.2,286046997.8,N
1544476375.0,286046997.6,N
1544476375.9,286046997.6,N
1544476395.8,286046995.4,N
1544476415.6,286046997.6,N
1544476435.4,286046997.9,N
1544476455.3,286046994.9,N
1544476475.1,286046997.6,N
1544476495.9,286046997.3,N
1544476515.7,286046997.0,N
1544476535.5,286046996.7,N
1544476555.4,286046995.4,N
1544476575.2,286046998.0,N
1544476595.0,286046995.0,N
1544476595.9,286046995.0,N
1544476615.8,286046997.8,N
1544476635.6,286046995.5,N
1544476655.5,286046995.8,N
1544476675.3,286046993.7,N
1544476695.1,286046995.7,N
1544476715.9,286046997.9,N
1544476735.7,286046995.4,N
1544476755.5,286046997.7,N
1544476775.4,286046997.2,N
1544476795.2,286046995.1,Y
1544476815.1,286046999.5,P
1544476816.0,286046999.5,N
1544476835.8,286046999.5,N
1544476855.6,286047000.7,N
1544476875.5,286047001.1,N
1544476895.3,286047001.2,N
1544476915.2,286046998.2,N
1544476935.9,286046998.1,N
1544476955.7,286046999.9,N
1544476975.6,286047000.9,N
1544476995.4,286047000.5,N
1544477015.2,286046999.9,N
1544477035.1,286047002.8,N
1544477036.0,286047002.8,N
1544477055.8,286047001.8,N
1544477075.7,286047003.8,N
1544477095.5,286047004.2,N
1544477115.3,286047001.3,N
1544477135.2,286047001.8,N
1544477155.0,286047002.6,N
1544477155.9,286047002.6,N
1544477175.7,286047002.5,N
1544477195.6,286047002.3,N
1544477215.4,286047002.2,N
1544477235.3,286047004.3,N
1544477255.1,286047001.4,N
1544477275.8,286047003.9,N
1544477295.7,286047004.1,N
1544477315.5,286047003.7,N
1544477335.4,286047002.9,N
1544477355.2,286047003.3,N
1544477375.0,286047004.1,N
1544477375.9,286047004.1,N
1544477395.8,286047005.6,Y
1544477415.6,286047004.4,P
1544477435.5,286047002.6,N
1544477455.3,286046999.7,N
1544477475.1,286047002.5,N
1544477495.9,286047002.2,N
1544477515.7,286047002.1,N
1544477535.5,286047002.7,N
1544477555.4,286047001.4,N
1544477575.2,286047002.4,N
1544477595.1,286047001.8,N
1544477596.0,286047001.8,N
1544477615.8,286047001.7,N
1544477635.6,286047003.3,Y
1544477655.5,286047000.1,P
1544477675.3,286047000.2,N
1544477695.1,286046999.7,N
1544477715.9,286046999.8,N
1544477735.7,286047000.3,N
1544477755.6,286046999.7,N
1544477775.4,286046999.7,N
1544477795.2,286047000.3,N
1544477815.1,286047000.6,N
1544477816.0,286047000.6,N
1544477835.8,286046999.9,N
1544477855.7,286047000.6,N
1544477875.5,286046999.7,N
1544477895.3,286047000.1,N
1544477915.2,286047002.0,Y
1544477935.0,286047002.5,P
1544477935.9,286047002.5,N
1544477955.7,286047004.0,P
1544477975.6,286047001.9,N
1544477995.4,286047002.4,N
1544478015.3,286047000.5,N
1544478035.1,286047000.2,N
1544478036.0,286047000.2,N
1544478055.8,286047002.2,N
1544478075.7,286047001.6,N
1544478095.5,286047000.1,N
1544478115.3,286047002.4,N
1544478135.2,286047001.9,N
1544478155.0,286047004.1,Y
1544478155.9,286047004.1,P
1544478175.8,286046999.7,N
1544478195.6,286047011.9,P
1544478215.4,286047000.2,N
1544478235.3,286047002.1,N
1544478255.1,286047000.9,N
1544478275.9,286047002.6,N
1544478295.7,286047001.6,N
1544478315.5,286047000.1,N
1544478335.4,286047002.8,N
1544478355.2,286047002.0,N
1544478375.0,286047002.4,N
1544478375.9,286047002.4,N
1544478395.8,286047001.6,N
1544478415.6,286047001.9,N
1544478435.5,286047002.8,N
1544478455.3,286047001.6,N
1544478475.1,286047002.1,N
1544478495.9,286047000.3,N
1544478515.7,286047000.9,N
1544478535.5,286047000.4,N
1544478555.4,286047000.9,N
1544478575.2,286047002.3,N
1544478595.0,286047002.8,N
1544478595.9,286047002.8,N
1544478615.8,286047002.6,N
1544478635.8,286046999.8,N
1544478655.6,286047000.6,N
1544478675.5,286047000.2,N
1544478695.3,286047001.0,N
1544478715.1,286047000.2,N
1544478735.9,286047000.6,N
1544478755.7,286046998.1,N
1544478775.6,286047000.6,N
1544478795.4,286047002.8,N
1544478815.2,286047000.1,N
1544478835.1,286047002.5,N
1544478836.0,286047002.5,N
1544478855.8,286047001.6,N
1544478875.6,286047001.9,N
1544478895.5,286046999.8,N
1544478915.3,286047002.4,N
1544478935.2,286047000.1,N
1544478955.9,286047002.2,N
1544478975.7,286047002.4,N
1544478995.6,286047000.6,N
1544479015.4,286047000.9,N
1544479035.2,286046998.4,N
1544479055.1,286047000.3,N
1544479056.0,286047000.3,N
1544479075.8,286047002.7,N
1544479095.7,286047000.2,N
1544479115.5,286046999.9,N
1544479135.3,286047000.3,N
1544479155.2,286046999.9,N
1544479175.0,286047001.0,N
1544479175.9,286047001.0,N
1544479195.7,286047002.6,N
